Temp
68 68 68 69 70 70 70 70 70 70 71 71 71 72 71 71 70 70 70 70 69 69 69 68 68 68 68 69 69 69 69 69 68 68 68 68 67 68 68 67 67 65 63 61 61 56 54 53 52 52 52 45
65 66 67 67 68 68 68 69 69 69 70 71 71 71 70 69 67 68 69 68 69 69 68 68 68 67 69 68 69 69 69 69 68 68 68 68 67 67 67 67 65 63 62 61 59 55 54 53 52 51 52 44
63 64 65 65 66 67 67 67 68 69 69 69 69 69 68 67 65 65 67 67 68 68 68 67 66 67 68 68 68 68 69 68 68 68 68 67 67 67 67 66 63 63 62 60 59 56 54 52 51 51 50 44
63 64 64 64 65 65 65 65 66 67 67 67 65 65 64 62 62 62 64 66 65 67 67 65 64 66 67 67 68 68 68 68 68 68 67 67 67 67 67 65 63 62 61 60 58 56 54 52 51 45 43 45
65 65 63 63 63 64 64 64 64 65 65 65 64 61 61 60 60 59 59 62 61 65 63 61 62 66 67 67 67 67 67 68 68 67 67 67 67 67 66 64 63 61 61 61 59 55 53 52 44 42 43 44
64 63 63 63 62 61 61 62 62 61 60 60 60 61 61 60 61 61 61 59 60 59 60 58 61 62 65 66 67 67 67 66 67 67 67 67 66 66 65 61 54 54 60 61 59 55 53 47 41 42 40 42
63 63 61 62 63 62 63 60 59 59 60 59 59 60 60 60 61 62 62 60 59 58 59 59 59 61 64 65 67 66 66 66 66 66 66 65 65 64 64 54 46 44 43 47 59 55 47 39 39 39 39 40
62 61 61 61 61 62 62 62 61 60 59 60 60 61 60 59 61 62 63 61 59 59 59 60 58 60 62 62 64 64 63 64 64 65 65 64 63 62 57 49 46 45 41 44 42 40 39 37 38 38 37 39
58 61 60 60 60 61 60 60 62 61 61 59 60 60 61 60 61 61 60 60 60 59 59 56 54 56 58 58 55 60 55 55 58 62 58 59 60 55 51 48 46 44 43 44 41 39 37 36 37 36 38 35
58 60 59 60 61 60 62 61 60 61 61 61 60 60 61 61 61 62 61 60 58 57 58 57 52 53 53 54 53 55 51 48 50 51 47 51 53 47 46 45 43 44 44 41 37 38 37 39 38 38 34 36
58 55 57 58 59 59 59 59 59 60 61 62 61 60 60 60 60 60 61 61 58 56 58 58 54 53 52 53 53 53 51 47 47 47 45 44 46 46 44 43 41 44 43 42 39 38 37 37 39 38 36 36
57 57 58 57 58 59 59 59 58 58 58 61 62 61 61 61 60 60 60 60 60 58 58 59 56 54 50 49 50 53 50 46 44 46 46 46 46 44 44 43 42 41 41 42 42 38 39 38 38 39 36 40
55 56 57 57 56 57 59 58 58 57 59 60 59 61 61 61 61 60 61 60 60 58 58 58 55 53 54 50 49 51 48 47 44 45 47 47 45 45 45 43 42 41 41 42 41 40 39 38 38 39 38 39
53 54 54 55 56 56 57 57 58 58 57 57 59 57 58 60 58 61 59 59 60 59 57 57 53 55 53 52 49 50 47 45 45 44 44 46 44 45 45 42 42 41 41 41 40 40 39 38 39 38 36 37
53 54 53 53 54 55 56 56 57 58 58 58 58 59 59 58 59 58 58 58 57 54 56 56 54 54 52 48 48 52 47 47 46 43 43 46 46 46 44 43 42 41 40 40 39 40 38 38 39 39 38 36
51 52 52 52 52 53 54 55 56 56 57 57 58 58 57 58 58 59 56 56 57 57 57 57 57 54 50 52 48 53 46 45 46 44 44 42 44 43 43 41 40 41 40 39 39 39 38 38 38 36 37 36
50 50 51 52 52 52 53 53 54 54 55 56 57 58 58 57 57 59 57 56 57 57 55 57 57 54 53 52 51 50 47 46 46 45 43 43 44 42 41 40 40 42 40 40 39 39 39 38 38 37 37 36
49 49 50 50 51 52 51 50 51 52 53 54 55 56 57 56 56 56 57 57 56 55 53 55 56 55 52 51 50 49 47 45 44 44 43 42 43 44 43 42 41 41 39 39 39 38 39 38 38 37 37 36
49 49 48 48 49 50 50 51 50 50 52 51 53 55 55 56 56 56 56 57 57 57 56 54 52 52 54 50 49 45 45 46 44 45 44 43 43 42 42 42 41 42 41 39 40 39 39 38 37 37 37 37
49 49 48 48 49 49 49 50 50 48 50 51 50 52 53 54 55 56 56 55 55 56 56 56 53 53 52 47 46 44 43 45 44 45 44 43 44 42 41 42 41 40 41 39 39 38 38 37 38 36 36 37
46 48 48 49 49 47 47 48 49 49 50 51 51 49 49 52 53 54 55 55 55 55 56 55 55 52 53 50 46 44 44 46 45 45 46 43 44 44 43 42 42 40 41 40 39 38 37 38 38 37 36 36
47 46 48 46 47 47 47 48 48 48 49 49 49 48 48 49 50 51 52 53 54 55 56 56 56 56 53 50 47 45 45 46 46 45 46 44 43 44 43 42 42 40 40 40 38 38 38 38 37 36 36 37
45 45 46 44 47 46 47 47 45 46 46 48 50 50 49 48 49 49 49 50 52 52 53 54 55 55 55 48 45 46 45 45 45 45 44 44 42 43 44 44 43 42 40 40 39 38 38 38 37 36 36 37
41 41 41 41 42 43 44 46 45 46 44 47 49 49 48 48 48 49 49 49 50 50 51 51 53 54 50 47 45 45 44 44 45 44 43 42 42 42 41 41 40 39 39 37 36 37 37 37 36 35 37 36
40 39 38 37 40 40 42 43 45 46 46 45 44 45 46 46 47 46 47 47 48 48 48 49 50 51 45 46 45 45 46 45 45 45 45 45 44 42 41 40 40 39 40 37 34 33 35 35 35 38 37 35
42 41 39 40 37 39 39 41 41 42 45 45 47 44 43 46 47 46 44 44 45 45 45 45 45 44 40 39 42 43 45 45 45 45 45 44 42 42 43 41 42 40 41 36 36 34 32 32 33 35 35 35
42 43 43 43 41 40 38 40 42 43 44 45 45 46 44 43 43 44 44 44 43 43 43 43 43 43 39 39 41 41 40 43 44 45 45 45 44 41 41 42 41 41 44 38 37 36 34 29 31 33 33 34
45 45 45 45 44 43 42 40 41 41 43 43 44 44 45 42 40 41 42 43 43 42 41 42 42 43 39 39 40 39 40 41 43 43 44 45 45 44 40 41 40 44 43 41 38 32 34 32 31 28 30 33
44 44 43 42 40 40 38 35 34 35 38 41 42 43 41 42 43 42 40 41 42 42 41 41 41 40 38 37 38 38 38 39 42 44 43 44 44 44 43 40 40 42 44 42 45 40 35 30 31 32 31 32
45 43 42 41 40 38 37 37 35 36 38 40 40 41 43 44 45 44 43 41 40 41 41 39 40 39 39 36 36 37 37 38 38 39 40 43 44 44 44 42 42 40 43 44 43 44 46 44 34 33 31 32
46 44 44 42 40 40 39 38 38 40 42 42 43 42 42 42 43 44 44 44 42 40 40 40 39 39 38 36 36 37 36 36 36 39 37 37 37 40 43 42 41 41 41 42 43 43 42 39 38 40 35 27
MSLP
1013.59 1013.71 1013.87 1013.95 1013.91 1013.83 1013.91 1014.07 1014.27 1014.39 1014.43 1014.47 1014.55 1014.67 1014.83 1015.07 1015.19 1015.39 1015.59 1015.75 1015.99 1016.11 1016.35 1016.55 1016.87 1016.99 1017.15 1017.23 1017.35 1017.31 1017.39 1017.55 1017.75 1017.95 1018.15 1018.27 1018.55 1018.63 1018.75 1018.95 1019.15 1019.63 1020.07 1020.43 1020.75 1021.19 1021.71 1022.11 1022.35 1022.47 1022.47 1022.51
1013.67 1013.75 1013.87 1013.99 1014.07 1014.07 1014.15 1014.19 1014.23 1014.19 1014.23 1014.23 1014.35 1014.51 1014.71 1014.91 1015.15 1015.35 1015.59 1015.79 1015.99 1016.11 1016.23 1016.47 1016.75 1016.99 1016.95 1017.23 1017.27 1017.31 1017.39 1017.51 1017.67 1017.83 1018.07 1018.15 1018.47 1018.59 1018.71 1018.79 1019.27 1019.71 1020.03 1020.31 1020.63 1021.03 1021.39 1021.91 1022.27 1022.51 1022.47 1022.51
1013.75 1013.79 1013.87 1013.95 1013.99 1014.07 1014.11 1014.23 1014.35 1014.35 1014.35 1014.35 1014.35 1014.43 1014.55 1014.75 1014.95 1015.19 1015.43 1015.67 1015.83 1015.99 1016.19 1016.47 1016.71 1016.91 1017.03 1017.07 1017.19 1017.27 1017.27 1017.43 1017.59 1017.75 1018.03 1018.23 1018.39 1018.55 1018.67 1018.87 1019.39 1019.67 1019.91 1020.27 1020.51 1020.87 1021.27 1021.75 1022.19 1022.39 1022.47 1022.51
1013.67 1013.75 1013.87 1013.95 1014.03 1014.07 1014.11 1014.15 1014.23 1014.31 1014.39 1014.47 1014.55 1014.63 1014.71 1014.83 1014.95 1015.11 1015.27 1015.47 1015.71 1015.87 1016.11 1016.35 1016.59 1016.79 1016.99 1017.07 1017.07 1017.19 1017.23 1017.35 1017.59 1017.79 1017.99 1018.23 1018.39 1018.51 1018.59 1018.95 1019.31 1019.63 1019.87 1020.15 1020.47 1020.71 1021.15 1021.59 1022.03 1022.31 1022.43 1022.43
1013.47 1013.51 1013.67 1013.87 1014.03 1014.07 1014.15 1014.19 1014.19 1014.31 1014.43 1014.47 1014.55 1014.67 1014.79 1014.95 1015.15 1015.31 1015.43 1015.51 1015.67 1015.87 1016.07 1016.23 1016.47 1016.55 1016.71 1016.83 1016.95 1017.07 1017.23 1017.27 1017.47 1017.71 1017.95 1018.15 1018.31 1018.47 1018.67 1018.95 1019.23 1019.59 1019.83 1020.03 1020.35 1020.71 1021.15 1021.59 1021.99 1022.23 1022.35 1022.27
1013.47 1013.51 1013.51 1013.63 1013.83 1014.03 1014.15 1014.19 1014.19 1014.27 1014.35 1014.47 1014.51 1014.55 1014.71 1014.91 1014.99 1015.23 1015.51 1015.67 1015.79 1015.95 1016.15 1016.35 1016.35 1016.51 1016.71 1016.71 1016.75 1016.91 1017.07 1017.23 1017.35 1017.55 1017.79 1018.07 1018.31 1018.59 1018.87 1019.19 1019.47 1019.71 1019.87 1020.03 1020.27 1020.75 1021.23 1021.71 1022.03 1022.23 1022.23 1022.27
1013.47 1013.43 1013.59 1013.67 1013.71 1013.83 1013.95 1014.07 1014.15 1014.19 1014.27 1014.35 1014.43 1014.43 1014.55 1014.79 1015.03 1015.03 1015.23 1015.55 1015.79 1016.03 1016.19 1016.39 1016.51 1016.47 1016.67 1016.67 1016.55 1016.67 1016.87 1017.07 1017.23 1017.51 1017.75 1018.11 1018.47 1018.75 1018.91 1019.43 1019.75 1019.95 1020.15 1020.19 1020.31 1020.75 1021.35 1021.83 1022.07 1022.27 1022.23 1022.31
1013.79 1013.71 1013.55 1013.67 1013.83 1013.83 1013.79 1013.91 1014.03 1014.15 1014.23 1014.23 1014.27 1014.31 1014.39 1014.51 1014.79 1014.99 1015.07 1015.27 1015.59 1015.87 1016.07 1016.35 1016.55 1016.55 1016.55 1016.67 1016.47 1016.55 1016.79 1016.99 1017.15 1017.43 1017.75 1018.03 1018.35 1018.67 1018.99 1019.39 1019.75 1020.07 1020.27 1020.39 1020.63 1021.07 1021.55 1021.87 1022.11 1022.31 1022.27 1022.35
1014.19 1013.99 1013.87 1013.71 1013.59 1013.67 1013.71 1013.75 1013.79 1013.91 1014.07 1014.15 1014.19 1014.23 1014.23 1014.27 1014.31 1014.59 1014.87 1015.07 1015.31 1015.59 1015.87 1016.19 1016.51 1016.63 1016.55 1016.59 1016.63 1016.51 1016.75 1016.99 1017.11 1017.27 1017.63 1017.95 1018.19 1018.55 1018.91 1019.23 1019.59 1019.87 1020.19 1020.35 1020.67 1021.07 1021.63 1021.87 1022.11 1022.27 1022.27 1022.39
1014.55 1014.43 1014.23 1014.03 1013.79 1013.59 1013.55 1013.59 1013.71 1013.67 1013.83 1013.99 1014.07 1014.11 1014.11 1014.15 1014.19 1014.23 1014.43 1014.67 1014.95 1015.31 1015.55 1015.83 1016.31 1016.51 1016.59 1016.63 1016.63 1016.59 1016.67 1016.87 1017.07 1017.23 1017.51 1017.83 1018.11 1018.47 1018.83 1019.11 1019.47 1019.71 1019.95 1020.31 1020.63 1021.11 1021.59 1021.87 1022.07 1022.19 1022.23 1022.35
1014.83 1014.55 1014.43 1014.27 1014.07 1013.87 1013.67 1013.47 1013.55 1013.59 1013.59 1013.63 1013.79 1013.87 1013.95 1014.03 1014.03 1014.07 1014.11 1014.19 1014.55 1014.95 1015.19 1015.43 1015.87 1016.31 1016.47 1016.51 1016.59 1016.63 1016.63 1016.75 1016.91 1017.11 1017.39 1017.75 1018.07 1018.43 1018.79 1019.07 1019.35 1019.55 1019.79 1020.19 1020.67 1021.15 1021.47 1021.71 1021.95 1021.99 1022.11 1022.19
1015.35 1015.03 1014.67 1014.47 1014.31 1014.15 1013.91 1013.63 1013.59 1013.55 1013.55 1013.55 1013.43 1013.55 1013.63 1013.75 1013.75 1013.83 1013.91 1013.91 1014.03 1014.39 1014.75 1014.99 1015.35 1015.83 1016.27 1016.47 1016.47 1016.47 1016.51 1016.63 1016.75 1016.91 1017.19 1017.51 1017.87 1018.27 1018.59 1018.91 1019.23 1019.55 1019.79 1020.19 1020.59 1021.07 1021.35 1021.59 1021.71 1021.75 1021.91 1022.03
1015.75 1015.47 1015.19 1014.91 1014.67 1014.43 1014.19 1013.99 1013.75 1013.51 1013.47 1013.51 1013.71 1013.43 1013.35 1013.39 1013.47 1013.55 1013.55 1013.63 1013.71 1013.99 1014.31 1014.63 1014.91 1015.39 1015.79 1016.19 1016.35 1016.43 1016.43 1016.51 1016.59 1016.67 1016.87 1017.19 1017.55 1017.91 1018.35 1018.71 1019.07 1019.35 1019.67 1019.99 1020.39 1020.79 1021.11 1021.31 1021.39 1021.51 1021.67 1021.79
1016.03 1015.79 1015.63 1015.39 1015.19 1014.87 1014.59 1014.31 1014.03 1013.79 1013.55 1013.43 1013.43 1013.71 1013.63 1013.43 1013.43 1013.23 1013.27 1013.31 1013.31 1013.43 1013.75 1014.11 1014.43 1014.87 1015.35 1015.75 1016.03 1016.19 1016.31 1016.39 1016.47 1016.51 1016.71 1016.95 1017.31 1017.63 1017.99 1018.43 1018.75 1019.07 1019.43 1019.75 1020.15 1020.51 1020.75 1020.87 1021.03 1021.23 1021.39 1021.59
1016.39 1016.07 1015.83 1015.59 1015.39 1015.15 1014.87 1014.59 1014.31 1014.07 1013.79 1013.51 1013.31 1013.27 1013.35 1013.55 1013.43 1013.35 1013.27 1013.31 1013.35 1013.67 1013.67 1013.67 1013.99 1014.43 1014.91 1015.35 1015.63 1015.75 1015.95 1016.19 1016.35 1016.47 1016.51 1016.55 1016.83 1017.15 1017.55 1017.99 1018.39 1018.79 1019.23 1019.55 1019.91 1020.15 1020.39 1020.59 1020.79 1020.99 1021.19 1021.39
1016.51 1016.31 1016.11 1015.79 1015.51 1015.27 1015.07 1014.87 1014.63 1014.35 1014.07 1013.83 1013.59 1013.27 1013.11 1013.11 1013.31 1013.31 1013.39 1013.43 1013.35 1013.27 1013.55 1013.55 1013.51 1013.99 1014.67 1014.91 1015.23 1015.35 1015.55 1015.79 1016.07 1016.35 1016.55 1016.71 1016.83 1017.07 1017.39 1017.87 1018.27 1018.59 1018.99 1019.39 1019.63 1019.87 1020.11 1020.39 1020.55 1020.79 1020.99 1021.19
1016.59 1016.39 1016.19 1015.99 1015.79 1015.47 1015.27 1015.03 1014.79 1014.63 1014.35 1014.07 1013.75 1013.55 1013.27 1013.07 1012.99 1012.95 1013.11 1013.23 1013.23 1013.23 1013.51 1013.39 1013.27 1013.51 1014.15 1014.55 1014.83 1014.99 1015.23 1015.43 1015.71 1016.07 1016.39 1016.71 1016.87 1017.19 1017.51 1017.87 1018.19 1018.47 1018.79 1019.07 1019.39 1019.59 1019.83 1020.11 1020.31 1020.51 1020.75 1020.95
1016.63 1016.43 1016.23 1016.03 1015.87 1015.67 1015.43 1015.23 1015.07 1014.71 1014.39 1014.23 1013.99 1013.67 1013.47 1013.23 1013.07 1012.95 1012.79 1012.87 1012.95 1013.15 1013.31 1013.47 1013.27 1013.19 1013.67 1014.19 1014.55 1014.75 1014.95 1015.19 1015.43 1015.63 1015.95 1016.31 1016.67 1016.95 1017.23 1017.51 1017.87 1018.19 1018.51 1018.79 1019.03 1019.31 1019.51 1019.79 1019.95 1020.23 1020.47 1020.67
1016.63 1016.39 1016.19 1016.03 1015.87 1015.71 1015.55 1015.31 1015.11 1014.87 1014.55 1014.23 1013.99 1013.83 1013.63 1013.39 1013.19 1013.03 1012.95 1012.79 1012.83 1012.91 1012.95 1013.27 1013.55 1013.35 1013.27 1013.79 1014.27 1014.55 1014.63 1014.79 1015.15 1015.31 1015.51 1015.91 1016.31 1016.67 1016.99 1017.27 1017.67 1017.87 1018.03 1018.39 1018.63 1018.87 1019.15 1019.39 1019.67 1019.95 1020.15 1020.43
1016.67 1016.39 1016.19 1015.99 1015.79 1015.67 1015.55 1015.39 1015.11 1014.83 1014.63 1014.39 1014.11 1013.83 1013.63 1013.55 1013.35 1013.11 1012.99 1012.87 1012.75 1012.83 1012.75 1012.75 1013.19 1013.31 1013.23 1013.51 1013.99 1014.31 1014.47 1014.63 1014.87 1014.99 1015.27 1015.55 1015.71 1016.31 1016.67 1016.99 1017.31 1017.63 1017.83 1018.07 1018.31 1018.59 1018.83 1019.11 1019.35 1019.63 1019.91 1020.11
1016.59 1016.31 1016.19 1016.03 1015.75 1015.59 1015.51 1015.35 1015.11 1014.91 1014.67 1014.47 1014.27 1014.03 1013.71 1013.43 1013.35 1013.31 1013.23 1013.11 1012.79 1012.71 1012.75 1012.71 1012.79 1013.07 1012.99 1013.15 1013.55 1013.99 1014.19 1014.31 1014.47 1014.71 1014.91 1015.23 1015.39 1015.55 1016.07 1016.43 1016.71 1017.23 1017.43 1017.75 1018.03 1018.31 1018.59 1018.83 1019.03 1019.31 1019.51 1019.75
1016.55 1016.31 1016.15 1015.99 1015.83 1015.55 1015.43 1015.27 1015.11 1014.91 1014.79 1014.67 1014.43 1014.15 1013.87 1013.55 1013.31 1013.15 1013.19 1013.23 1013.23 1012.91 1012.59 1012.55 1012.63 1012.75 1012.95 1012.99 1013.19 1013.55 1013.83 1013.83 1014.07 1014.39 1014.55 1014.83 1015.03 1015.23 1015.67 1016.11 1016.35 1016.71 1017.11 1017.39 1017.75 1018.03 1018.31 1018.55 1018.79 1019.03 1019.31 1019.51
1016.47 1016.31 1016.23 1016.07 1015.83 1015.67 1015.51 1015.31 1015.03 1014.87 1014.79 1014.75 1014.55 1014.23 1013.99 1013.75 1013.55 1013.27 1013.07 1013.07 1013.15 1013.23 1013.07 1012.71 1012.51 1012.63 1012.71 1012.95 1013.11 1013.19 1013.43 1013.55 1013.67 1013.91 1014.19 1014.43 1014.87 1014.99 1015.03 1015.23 1015.63 1016.03 1016.55 1016.99 1017.39 1017.75 1018.03 1018.31 1018.55 1018.87 1019.11 1019.35
1016.47 1016.39 1016.39 1016.27 1016.07 1015.95 1015.75 1015.47 1015.23 1014.95 1014.79 1014.71 1014.55 1014.31 1014.27 1014.19 1013.99 1013.63 1013.31 1013.07 1012.99 1013.11 1013.23 1013.15 1012.83 1012.59 1012.63 1012.79 1013.07 1013.11 1013.15 1013.19 1013.27 1013.39 1013.75 1014.15 1014.47 1014.83 1015.11 1015.27 1015.51 1015.95 1016.51 1017.03 1017.35 1017.67 1018.03 1018.19 1018.39 1018.67 1018.87 1019.07
1016.39 1016.39 1016.31 1016.19 1016.15 1016.11 1015.95 1015.79 1015.47 1015.11 1014.79 1014.55 1014.43 1014.27 1014.23 1014.27 1014.19 1014.03 1013.83 1013.47 1013.11 1012.95 1012.99 1013.11 1013.07 1012.79 1012.67 1012.75 1012.91 1012.99 1012.83 1012.79 1012.91 1013.07 1013.19 1013.47 1013.95 1014.39 1014.83 1015.11 1015.23 1015.59 1016.03 1016.75 1017.43 1017.71 1017.91 1018.19 1018.31 1018.43 1018.63 1018.79
1016.31 1016.19 1016.03 1015.91 1015.83 1015.71 1015.71 1015.71 1015.55 1015.35 1015.03 1014.71 1014.39 1014.23 1014.19 1014.15 1014.03 1013.95 1013.91 1013.87 1013.59 1013.23 1013.03 1013.03 1013.11 1013.15 1013.07 1013.07 1013.11 1013.07 1012.87 1012.71 1012.75 1012.79 1013.07 1013.31 1013.67 1013.79 1013.99 1014.35 1014.59 1015.11 1015.63 1016.59 1016.35 1017.19 1018.07 1018.19 1018.31 1018.35 1018.43 1018.55
1016.39 1016.15 1015.91 1015.71 1015.51 1015.35 1015.23 1015.11 1015.15 1015.19 1015.11 1014.87 1014.55 1014.19 1013.95 1013.79 1013.75 1013.71 1013.75 1013.75 1013.75 1013.55 1013.23 1013.07 1013.03 1012.99 1013.03 1013.11 1013.15 1013.11 1013.07 1012.83 1012.55 1012.63 1012.67 1012.87 1012.99 1013.51 1013.75 1013.91 1014.27 1014.55 1014.03 1014.87 1015.91 1016.67 1017.59 1018.23 1018.47 1018.59 1018.43 1018.39
1015.99 1015.79 1015.59 1015.43 1015.27 1015.03 1014.87 1014.71 1014.63 1014.71 1014.83 1014.83 1014.59 1014.15 1013.71 1013.55 1013.59 1013.59 1013.55 1013.47 1013.51 1013.55 1013.43 1013.15 1012.99 1012.87 1012.83 1012.91 1012.95 1012.95 1012.87 1012.79 1012.63 1012.47 1012.47 1012.55 1012.67 1012.83 1013.43 1013.47 1013.63 1013.59 1013.75 1014.15 1015.19 1016.83 1015.75 1016.67 1017.67 1018.63 1018.07 1017.55
1015.71 1015.59 1015.51 1015.31 1015.11 1014.91 1014.63 1014.51 1014.51 1014.51 1014.47 1014.51 1014.43 1014.11 1013.79 1013.63 1013.55 1013.43 1013.39 1013.31 1013.23 1013.23 1013.23 1013.11 1012.91 1012.87 1012.87 1012.79 1012.71 1012.79 1012.75 1012.59 1012.47 1012.27 1012.19 1012.27 1012.43 1012.47 1012.43 1012.91 1012.99 1013.35 1013.31 1013.47 1012.95 1013.31 1015.23 1016.55 1016.99 1015.19 1015.19 1017.47
1015.55 1015.51 1015.43 1015.27 1015.15 1014.95 1014.75 1014.55 1014.39 1014.39 1014.23 1014.07 1014.15 1014.15 1013.79 1013.55 1013.51 1013.39 1013.31 1013.23 1013.07 1012.87 1012.87 1012.91 1012.83 1012.55 1012.51 1012.63 1012.67 1012.63 1012.55 1012.39 1012.35 1012.23 1012.11 1011.99 1011.99 1012.07 1012.15 1012.31 1012.79 1012.91 1012.95 1012.75 1012.79 1012.47 1011.63 1011.47 1012.39 1013.75 1015.55 1016.31
1015.51 1015.39 1015.27 1015.15 1014.99 1014.83 1014.63 1014.43 1014.11 1013.83 1013.63 1013.55 1013.47 1013.51 1013.55 1013.43 1013.27 1013.19 1013.15 1012.99 1012.83 1012.75 1012.63 1012.59 1012.51 1012.35 1012.19 1012.23 1012.43 1012.55 1012.59 1012.47 1012.15 1011.95 1011.79 1011.95 1012.11 1012.15 1012.07 1012.15 1012.27 1012.31 1012.31 1012.71 1012.63 1012.39 1012.03 1011.95 1011.83 1012.27 1014.31 1015.15
Wind_Speed
8 9 9 10 13 14 14 16 16 15 15 15 15 14 15 15 13 12 13 15 16 16 16 16 15 16 16 15 16 15 15 14 14 14 15 14 13 14 11 11 10 14 15 15 13 17 13 9 4 3 6 3
6 6 7 9 10 10 11 13 15 16 16 16 14 15 14 14 12 13 14 15 16 18 16 16 16 16 15 15 15 16 15 15 16 15 15 14 14 14 12 12 14 15 15 14 15 16 14 10 6 1 5 3
3 6 7 8 10 10 10 10 12 13 14 15 12 13 13 12 12 13 14 14 16 16 16 15 16 17 16 16 17 16 16 16 15 15 15 13 15 14 14 13 17 15 14 15 14 15 14 12 7 3 2 4
5 7 9 8 9 10 10 10 11 12 12 13 9 8 8 7 7 8 11 14 11 15 16 15 12 15 17 18 17 16 16 16 16 15 15 15 15 15 15 15 15 15 14 14 14 14 13 11 6 1 2 1
5 7 12 9 8 10 10 8 9 10 10 11 9 6 7 6 4 4 4 7 7 10 9 12 13 17 17 19 18 18 16 16 16 16 16 15 16 15 11 12 14 15 13 14 14 14 13 10 3 2 2 1
3 3 9 8 8 6 7 8 8 7 5 7 5 7 4 3 5 5 4 5 6 5 7 7 16 13 17 19 19 18 18 17 17 16 16 15 14 14 13 8 6 5 9 12 11 13 13 7 3 2 1 1
3 3 2 5 6 6 8 6 6 5 6 5 5 5 5 5 4 5 6 5 5 5 7 6 11 14 19 20 19 18 18 16 16 15 15 16 14 14 14 8 5 4 3 3 9 10 8 4 2 1 2 1
7 5 3 3 4 5 6 7 6 5 5 6 6 7 5 6 6 5 5 8 12 11 6 7 9 14 18 19 17 18 12 13 17 19 18 18 17 13 5 7 7 7 5 6 6 7 6 5 3 2 2 1
7 7 7 5 4 5 5 5 7 7 7 6 7 7 7 6 6 7 6 6 7 8 7 6 5 7 9 10 7 14 7 6 7 11 8 9 11 7 6 8 8 7 7 5 7 8 5 4 3 3 2 3
6 7 7 7 7 5 5 6 5 6 7 7 7 7 7 7 7 8 7 7 7 8 8 8 7 7 7 8 8 5 8 8 7 6 6 7 7 6 7 8 8 8 8 7 7 8 6 6 4 5 4 5
9 4 5 6 7 7 7 3 5 5 6 8 8 8 7 7 7 8 8 9 8 9 9 9 8 7 7 8 8 6 7 8 8 8 8 7 7 7 7 7 6 7 7 7 7 7 6 5 6 7 6 6
10 9 8 6 6 7 8 7 4 5 5 5 8 9 8 8 7 8 8 9 8 10 9 10 8 8 7 7 8 7 5 8 8 8 8 8 6 8 8 8 7 7 7 8 8 6 6 7 7 7 7 8
8 9 9 9 8 7 8 7 7 6 5 6 5 5 8 9 9 8 9 9 8 8 10 9 8 9 9 8 7 6 6 6 8 9 9 9 8 8 8 8 8 8 7 8 8 8 8 8 7 7 7 6
6 6 7 9 9 9 8 7 7 7 7 4 7 8 8 7 7 8 8 8 9 10 11 10 8 9 9 9 8 8 7 7 7 8 9 9 9 9 9 9 9 8 8 8 8 9 9 8 8 8 7 7
7 7 6 5 6 7 8 8 8 8 7 7 5 5 10 9 8 9 7 5 6 4 6 9 9 8 8 9 9 9 8 7 7 7 7 10 11 10 10 9 9 9 8 8 8 7 8 8 7 7 7 7
6 7 7 7 6 5 6 8 8 8 8 8 7 7 5 6 9 8 9 9 6 7 9 9 9 8 9 10 9 10 8 9 8 7 5 6 6 7 8 8 8 8 9 8 8 7 7 8 8 8 7 7
5 5 6 7 8 6 5 6 6 7 7 8 8 8 8 7 4 7 7 8 10 5 6 7 9 9 10 9 10 9 9 9 8 8 7 7 7 7 7 7 8 8 8 9 8 8 8 8 8 8 8 7
4 4 5 5 6 7 7 5 6 6 6 6 7 8 8 7 6 5 5 6 6 7 4 6 8 9 9 9 8 9 9 9 8 9 9 8 8 9 10 10 9 9 9 9 8 8 8 8 8 8 8 8
4 4 4 5 5 5 7 7 6 7 7 6 6 6 7 9 8 6 6 5 6 6 7 7 6 8 8 8 8 8 8 9 8 9 10 9 10 9 9 9 8 10 10 9 11 10 9 8 8 7 8 8
5 4 4 4 4 5 5 7 7 7 5 7 7 6 5 7 8 8 7 6 5 7 6 6 7 8 7 8 8 8 8 8 9 9 8 8 10 11 10 10 9 9 10 9 10 8 8 8 8 8 8 8
5 4 4 6 5 4 4 6 6 7 6 6 6 7 7 5 5 7 8 7 5 6 7 7 6 6 7 8 9 9 8 9 9 9 10 9 10 11 11 12 12 9 10 9 8 8 8 8 8 8 8 8
5 4 4 5 6 4 5 5 5 5 6 7 7 6 6 5 4 4 6 7 8 7 8 8 8 7 6 7 9 9 9 11 10 9 10 11 10 11 10 10 11 11 9 9 8 9 9 9 8 8 8 7
4 4 4 5 6 5 5 6 5 5 5 5 7 7 5 4 5 5 5 5 6 6 7 7 9 9 7 5 8 9 10 10 11 10 10 11 10 9 11 12 11 11 10 9 7 8 9 8 8 7 7 7
4 3 4 5 5 6 6 6 6 6 5 5 6 5 5 7 7 6 6 5 5 5 6 7 7 8 6 5 6 9 10 11 11 13 12 11 11 11 8 7 8 7 8 6 6 6 6 7 7 7 8 8
3 3 4 3 3 4 5 6 8 7 6 6 6 4 4 5 6 6 7 7 7 5 5 6 6 7 6 6 5 7 10 11 11 11 12 12 10 13 11 9 8 8 10 9 5 4 6 5 5 8 7 8
5 4 4 5 5 5 4 5 5 7 7 8 7 5 5 6 5 5 5 6 6 6 5 5 6 6 7 4 5 5 6 7 8 10 11 9 9 9 14 11 11 10 12 8 12 10 5 4 4 6 6 7
6 5 5 5 6 5 5 4 4 5 7 9 11 9 8 7 5 5 5 5 5 6 6 6 6 7 8 6 6 8 7 6 7 9 12 12 12 10 8 9 8 12 16 12 9 7 7 6 8 4 6 6
8 8 8 8 9 7 6 6 4 4 5 8 10 12 9 6 4 6 6 6 6 5 6 6 6 6 6 8 7 7 8 7 8 7 9 11 12 11 11 10 11 14 14 10 14 10 12 7 7 4 12 13
6 7 7 7 7 7 7 3 3 4 4 6 7 9 5 4 6 7 6 7 7 6 7 6 6 6 5 5 6 5 6 8 8 8 7 9 10 12 13 12 9 10 14 13 16 13 8 4 7 12 4 10
7 6 7 8 8 8 7 8 5 5 6 5 5 7 9 9 7 5 7 7 8 8 7 7 7 6 7 5 5 5 6 6 7 8 9 8 9 12 12 11 10 10 11 15 15 13 13 13 8 9 7 11
9 9 8 9 9 9 9 10 8 6 7 6 6 6 7 8 7 9 9 7 7 7 7 7 7 7 7 5 5 5 5 7 7 8 6 4 4 6 8 9 12 13 12 10 11 12 11 5 2 11 12 7
Wind_Direction
220 220 215 221 220 214 211 212 215 218 222 223 217 217 214 213 216 211 211 207 206 210 203 206 204 212 205 211 213 215 205 202 196 194 196 196 195 206 204 181 182 141 142 143 151 121 117 115 97 344 327 317
226 222 218 221 226 225 221 220 216 216 217 223 216 217 216 210 202 196 207 206 207 207 206 206 204 210 210 208 210 212 205 204 197 196 197 197 196 203 201 195 146 151 140 147 136 125 127 120 127 329 299 297
215 219 223 221 222 223 225 219 223 227 224 232 230 213 215 206 194 194 196 202 207 209 208 204 204 207 214 207 210 209 207 205 207 199 198 196 201 201 200 162 148 152 153 142 139 131 127 125 123 220 299 284
203 205 217 226 221 224 229 222 219 226 228 238 250 245 230 203 180 188 194 198 203 208 204 200 191 205 205 212 212 209 212 203 203 201 195 199 205 201 201 156 155 163 156 148 145 135 124 122 138 239 257 214
220 194 199 210 222 227 228 226 220 221 231 234 242 239 248 202 187 172 186 198 187 205 213 195 187 207 205 208 205 209 210 212 200 197 199 200 206 207 208 180 166 155 167 162 147 127 128 130 131 217 240 92
247 270 193 194 206 205 225 227 220 218 219 227 231 219 198 219 191 179 189 177 191 191 208 198 188 199 200 212 204 205 206 210 208 205 203 204 206 204 208 121 108 140 165 161 147 125 128 122 136 247 93 58
289 271 166 214 203 207 210 214 215 216 215 217 218 224 182 182 213 191 180 178 178 191 202 209 202 192 195 214 207 206 203 206 203 198 200 202 200 202 202 105 106 104 90 118 154 132 118 118 162 203 102 113
329 320 270 204 223 228 200 205 206 215 219 215 218 221 210 175 193 203 188 186 189 193 189 211 199 195 190 214 222 191 205 202 194 201 199 200 198 199 160 134 126 120 119 111 86 93 120 131 196 181 148 165
329 321 325 303 252 207 230 212 202 203 213 220 220 219 222 206 189 188 195 195 188 188 186 186 185 197 194 204 235 185 186 196 196 195 184 189 195 188 150 140 145 135 128 138 114 117 135 154 211 188 157 197
320 330 319 314 307 284 222 224 216 200 201 214 216 221 219 221 207 198 194 200 180 185 183 181 176 197 199 197 222 210 176 183 188 182 164 173 177 165 147 146 146 154 143 138 127 136 147 170 202 186 184 204
329 310 304 308 309 309 302 264 222 219 208 203 213 213 217 218 213 209 206 199 171 184 185 188 176 189 196 200 216 208 181 175 177 170 173 166 164 152 149 152 148 150 143 139 141 152 165 185 189 181 189 207
349 341 333 325 319 315 305 306 286 246 237 232 210 205 214 216 214 210 211 204 184 180 185 192 179 180 193 202 213 214 188 177 174 172 173 171 162 152 158 158 158 145 149 148 152 165 182 191 180 179 188 193
350 348 344 340 334 322 318 310 302 281 228 235 268 256 217 211 220 220 213 208 200 174 188 191 177 174 191 197 206 212 212 183 180 176 174 176 168 162 158 157 160 157 156 156 163 173 186 184 175 181 177 180
345 354 348 346 338 332 328 318 311 306 295 245 211 247 279 259 251 234 215 218 207 185 182 187 177 175 184 193 197 200 208 201 190 179 174 176 169 166 163 160 168 158 163 163 169 175 176 179 176 176 173 174
343 344 342 341 337 331 326 325 325 320 309 300 275 224 217 237 237 254 258 230 214 242 210 185 176 180 180 187 194 196 198 196 197 194 175 177 173 171 168 169 164 160 165 169 172 175 170 180 172 177 176 169
340 346 334 332 330 332 332 333 326 320 318 311 306 294 277 214 222 231 234 241 244 204 200 196 190 177 178 193 191 196 188 186 189 194 184 170 164 162 157 156 160 163 162 175 178 178 173 177 176 178 178 171
328 334 336 332 327 332 332 330 324 317 312 308 305 304 300 291 265 225 225 229 238 235 218 221 195 182 185 191 191 192 186 182 181 175 175 168 161 154 151 154 166 166 167 173 182 179 182 173 183 178 175 180
329 326 325 329 324 323 322 318 318 308 307 308 308 309 301 298 295 287 254 241 227 220 222 231 211 193 185 187 190 188 180 181 180 179 175 173 161 171 168 175 176 172 175 184 177 178 182 177 183 177 177 181
317 318 312 322 315 320 317 312 292 292 297 299 301 306 309 308 299 287 273 257 248 236 206 212 228 218 193 183 183 185 187 179 183 181 182 168 169 173 178 177 178 182 185 175 184 183 177 182 178 177 181 177
305 313 310 298 299 310 318 313 300 283 283 291 298 293 296 301 306 305 291 251 247 257 248 228 212 217 194 180 181 184 186 179 184 185 182 182 170 169 182 178 186 181 187 183 183 178 178 178 176 179 179 180
305 307 314 304 295 292 300 306 310 315 308 304 294 293 289 295 303 312 316 302 264 244 253 253 244 231 203 182 181 183 186 188 189 187 186 188 185 177 177 184 185 182 184 185 181 178 176 180 176 180 182 180
303 308 306 305 300 303 293 288 299 302 326 321 303 289 286 290 296 296 300 308 315 293 263 251 252 246 222 195 187 188 187 194 189 190 190 191 191 182 176 185 187 185 182 183 177 178 179 182 178 181 179 180
301 326 321 307 311 311 310 297 281 295 314 306 301 294 302 317 317 309 308 310 299 298 301 275 251 252 250 208 201 192 193 194 192 192 193 190 191 192 190 186 189 184 175 180 178 177 181 176 180 174 177 178
304 320 313 309 318 319 312 306 303 304 283 279 286 310 350 339 332 321 313 302 297 300 293 291 278 263 257 240 199 208 199 199 197 194 191 194 186 190 196 188 178 162 155 157 165 173 174 177 172 178 179 182
284 292 284 282 282 293 299 305 307 294 282 263 267 307 324 315 302 311 323 319 314 294 287 284 290 279 269 272 239 213 215 204 201 199 194 190 185 186 191 200 180 173 151 148 166 158 167 175 184 183 180 186
292 268 251 255 250 246 250 285 297 302 307 305 288 270 273 273 269 270 283 296 311 312 301 289 282 289 295 307 300 271 237 221 207 201 199 190 194 195 191 197 184 174 144 179 178 164 162 171 204 200 191 193
296 296 290 285 276 257 244 224 240 285 298 301 297 279 246 235 236 250 255 255 269 289 297 288 275 265 270 275 263 269 273 247 220 208 204 198 196 195 203 196 189 181 181 181 162 141 121 187 183 241 222 232
265 263 269 275 278 277 246 234 229 242 273 286 291 291 258 237 246 246 244 241 241 245 255 263 274 275 253 256 254 252 250 249 248 219 212 207 205 194 196 198 202 191 191 166 147 174 195 173 150 180 227 203
299 307 309 298 292 289 291 292 262 245 246 254 273 288 294 271 250 247 240 241 236 227 234 240 248 258 271 263 253 254 254 246 240 238 218 212 210 205 201 206 195 199 193 188 186 165 135 129 190 217 183 150
300 303 296 300 300 301 293 288 283 271 263 259 262 278 291 297 294 260 253 252 242 231 224 231 235 233 235 256 270 258 252 248 242 238 231 221 217 217 214 202 196 203 205 198 199 201 196 184 178 177 156 146
317 309 305 301 300 297 295 292 284 273 269 263 252 242 259 275 285 291 290 272 250 246 237 231 229 231 232 236 250 261 270 268 248 230 226 243 255 239 222 205 209 204 205 202 214 211 218 220 191 150 144 189